Temperature
18 18 18 18 18 18 18 18 18 17 17 17 17 17 17 17 17 17 17 17 17 17 17 17 17 17 17 17 17 17 17 18 18 18 18 18 18 17 17 17 17 17 17
18 18 18 18 18 18 18 17 17 17 17 17 17 17 17 17 17 17 17 17 17 17 17 17 17 17 17 17 17 17 17 17 17 17 17 17 17 17 17 17 16 16 16
17 17 17 17 17 17 17 17 17 17 17 17 17 17 17 17 17 17 17 17 17 17 17 17 17 17 17 17 17 17 17 17 17 17 17 17 17 17 16 16 16 16 16
17 17 17 17 17 17 17 17 17 17 17 17 17 17 17 17 17 16 16 16 17 16 16 16 16 16 16 16 16 16 16 16 16 16 16 16 16 16 16 16 16 16 16
17 17 17 17 17 17 17 16 16 16 16 16 16 16 16 16 16 16 16 16 16 16 16 16 16 16 16 16 16 16 16 16 16 15 15 15 15 15 15 15 15 15 15
17 17 17 17 17 16 16 16 16 16 16 16 16 16 16 16 16 16 16 16 16 15 15 15 15 15 15 15 15 15 15 15 15 15 15 14 14 14 14 14 14 14 14
17 16 16 16 16 16 16 16 16 16 16 16 16 16 16 16 15 15 15 15 15 15 15 15 15 15 15 15 15 15 14 14 14 14 14 14 14 14 14 13 13 13 13
16 16 16 16 16 16 16 16 16 16 15 15 15 15 15 15 15 15 15 15 15 15 14 14 14 14 14 14 14 14 14 14 13 13 13 13 13 13 13 12 12 12 12
16 16 16 16 16 15 15 15 15 15 15 15 15 15 15 14 14 14 14 14 14 14 14 14 14 14 14 14 14 13 13 13 13 13 13 12 12 12 12 12 12 11 11
15 15 15 15 15 15 15 15 15 14 14 14 14 14 14 14 14 14 14 14 13 13 13 13 13 13 13 13 13 13 12 12 12 12 12 12 11 11 11 11 11 10 10
15 15 15 15 15 15 14 14 14 14 14 14 14 13 13 13 13 13 13 13 13 13 12 12 12 12 12 12 12 12 12 12 12 11 11 11 11 10 10 10 10 10 10
15 15 14 14 14 14 14 14 14 14 14 13 13 13 12 12 13 13 13 13 12 12 12 12 11 11 11 11 11 11 11 11 11 11 10 10 10 10 10 10 10 10 10
14 14 14 14 14 13 13 13 13 13 13 13 12 12 12 12 12 12 12 12 11 11 11 11 11 11 11 11 10 10 10 10 10 10 10 10 9 9 9 9 9 9 9
14 13 13 13 13 13 13 13 13 12 12 12 12 11 11 11 11 11 11 11 11 11 11 10 10 10 10 10 10 9 9 9 9 9 9 9 9 9 9 9 9 9 9
13 13 13 13 13 13 13 12 12 12 12 12 12 11 11 11 11 11 10 10 10 10 10 10 10 10 10 9 9 9 9 9 9 8 8 8 8 8 8 8 8 8 8
13 13 12 12 12 12 12 12 12 11 11 11 11 11 11 10 10 10 10 10 10 10 10 10 9 9 9 9 9 8 8 8 8 8 8 8 8 8 8 8 7 7 7
13 13 12 12 12 12 11 11 11 11 10 10 10 10 10 10 10 9 9 9 9 9 9 9 9 8 8 8 8 8 7 7 7 7 7 7 7 7 7 7 7 7 7
12 12 12 12 12 11 11 11 11 11 10 10 10 9 9 9 9 9 9 9 9 9 9 8 8 8 8 7 7 7 7 7 7 6 6 6 6 6 6 6 6 6 6
12 12 12 11 11 11 11 11 10 10 10 9 9 9 9 9 9 9 9 9 8 8 8 8 7 7 7 7 7 6 6 6 6 6 6 6 6 6 6 6 6 6 6
11 11 11 11 11 11 11 11 10 10 9 9 9 9 9 9 8 8 8 8 8 7 7 7 7 6 6 6 6 6 6 6 5 5 5 5 5 5 5 5 5 5 5
11 11 11 11 11 11 11 10 10 10 9 9 9 8 8 8 8 8 7 7 7 7 6 6 6 6 6 6 5 5 5 5 5 5 5 5 5 5 5 5 5 5 5
11 11 11 11 11 10 10 10 10 10 9 9 8 8 8 8 7 7 7 7 6 6 6 6 6 5 5 5 5 5 5 5 5 5 4 4 4 4 4 4 5 5 5
11 11 10 10 10 10 10 10 10 9 9 8 8 8 7 7 7 7 6 6 6 5 5 5 5 5 4 4 4 4 4 4 4 4 4 4 4 4 4 4 4 4 4
11 10 10 10 10 10 9 9 9 8 8 8 8 7 7 7 6 6 6 5 5 5 5 4 4 4 4 4 4 4 4 4 4 4 4 4 4 4 4 4 4 4 4
10 10 10 9 9 9 9 8 8 8 8 7 7 7 7 6 6 6 5 5 5 4 4 4 4 4 4 4 4 4 4 4 4 4 4 3 3 3 3 3 3 4 4
9 9 9 9 8 8 8 8 8 7 7 7 7 6 6 6 6 5 5 5 5 4 4 4 3 3 3 3 3 3 3 3 3 3 3 3 3 3 3 3 3 3 4
Wind_Speed
6 6 5 5 5 5 4 5 4 3 3 4 5 5 5 5 6 6 7 6 6 6 6 6 6 6 4 3 3 2 2 2 3 3 2 1 1 1 2 5 6 8 12
5 5 4 4 4 4 4 4 4 3 3 3 4 4 5 5 5 6 7 6 6 6 6 5 5 5 5 3 3 2 2 2 3 4 3 2 1 1 2 3 5 6 7
5 5 4 4 4 4 3 3 3 3 3 3 3 3 3 3 3 4 4 4 4 4 4 4 4 4 4 3 2 2 2 3 2 3 3 2 2 2 2 3 4 3 6
5 4 4 4 4 4 3 3 3 3 3 3 2 2 2 1 2 2 2 2 2 2 2 1 1 2 3 3 3 3 2 2 2 2 2 2 1 2 0 2 3 3 4
3 4 4 4 4 4 4 4 3 3 3 3 2 2 1 1 1 1 1 2 1 1 1 1 1 2 1 1 1 0 1 1 1 2 2 2 2 2 2 2 3 3 3
3 3 4 4 5 5 4 4 4 3 3 3 3 3 2 1 3 3 3 2 2 2 2 1 1 2 2 2 3 2 1 0 1 1 2 1 2 3 3 3 3 3 3
3 3 4 4 5 5 5 5 4 4 4 4 3 4 4 5 6 6 6 4 4 3 3 2 1 2 2 1 2 2 1 1 1 1 1 1 1 2 3 3 3 3 4
3 3 4 5 5 5 5 5 5 4 4 4 5 5 5 6 7 7 8 6 6 6 5 4 3 3 3 2 2 2 2 2 1 2 1 1 1 2 2 2 3 4 4
4 4 4 4 5 5 5 5 5 5 6 6 6 6 7 7 8 7 7 6 6 7 7 7 5 5 6 3 3 2 3 2 4 4 3 2 1 2 3 3 3 4 4
5 5 5 5 6 6 6 6 6 6 6 7 8 8 8 8 9 9 7 5 6 5 6 7 10 9 9 7 4 3 3 2 2 1 1 1 0 1 2 2 3 4 4
6 7 6 6 6 7 6 6 7 7 7 8 9 8 8 9 10 11 8 4 5 5 6 6 5 8 9 10 8 6 4 3 2 1 1 2 2 2 3 2 2 2 3
8 9 9 8 8 8 8 7 7 7 8 8 8 8 7 7 8 10 11 10 8 7 6 5 5 7 9 9 7 7 7 5 3 3 4 4 4 3 3 3 3 3 3
10 10 10 10 9 8 8 7 6 5 6 6 7 7 7 7 8 10 10 11 10 7 5 5 4 5 5 5 6 7 7 5 4 5 4 4 3 3 2 3 3 4 5
10 10 10 10 10 10 8 8 7 5 5 6 7 7 7 6 6 5 5 6 7 6 4 3 3 2 3 4 5 4 4 4 4 4 3 3 3 3 3 3 3 4 4
10 10 10 10 11 11 11 10 9 8 6 7 7 6 6 6 5 5 4 4 4 4 1 1 2 3 3 4 4 4 5 5 5 4 4 4 4 4 4 3 4 4 4
8 8 8 8 9 9 11 12 17 14 17 18 15 12 9 8 7 9 10 10 9 8 5 4 5 5 5 5 5 5 5 5 5 5 5 5 5 5 4 4 4 4 5
8 7 7 7 8 8 9 10 10 11 15 16 15 14 11 9 8 8 8 7 7 6 5 6 6 6 5 6 6 6 5 5 5 5 5 5 5 5 5 4 4 4 5
8 8 7 7 7 7 7 8 8 9 8 7 8 9 8 7 7 7 6 4 4 5 5 6 5 5 5 6 6 6 5 5 5 5 5 6 6 6 6 6 5 5 5
7 6 6 6 6 6 6 7 7 8 9 8 6 4 3 3 3 5 5 4 6 6 6 6 6 6 6 6 5 5 5 5 6 5 5 6 6 6 6 6 6 7 6
7 8 5 5 6 6 6 7 7 7 7 7 6 4 2 2 3 4 4 5 6 6 5 5 5 6 5 5 5 5 5 5 6 6 6 6 6 6 6 7 7 7 6
6 6 5 5 6 7 6 6 6 6 7 7 6 5 4 3 5 5 6 6 6 6 5 5 5 5 5 5 6 6 7 7 7 7 7 7 7 6 6 6 6 6 6
5 5 5 6 6 6 6 6 6 7 7 8 6 6 5 4 5 6 5 5 6 5 6 5 5 6 6 6 6 7 7 8 8 8 8 8 7 7 6 6 7 7 7
5 6 7 7 6 6 6 6 6 7 7 6 6 5 5 5 5 5 6 5 5 5 6 6 6 7 8 9 10 9 7 7 7 8 8 8 8 7 7 7 8 8 7
6 7 7 6 6 6 6 6 6 6 6 5 5 5 5 5 5 6 5 5 5 5 6 7 7 8 10 9 9 9 9 9 10 10 10 8 8 7 7 7 7 8 7
6 7 7 6 6 6 6 6 6 5 5 5 5 5 5 5 5 5 4 4 4 5 5 6 6 7 9 10 9 9 10 12 11 11 10 9 9 7 7 7 7 7 7
7 7 7 6 6 6 6 5 5 5 5 5 5 5 4 4 5 4 4 3 3 4 4 5 7 8 9 8 8 10 11 12 14 14 11 9 8 6 7 6 8 7 6
Wind_Direction
174 180 181 182 189 192 201 208 199 193 192 190 195 198 200 205 210 211 217 215 209 214 221 221 222 229 243 248 242 240 244 234 246 264 259 277 208 191 174 229 232 211 214
165 163 170 173 179 187 196 194 183 184 192 190 197 197 201 204 207 211 218 219 215 215 217 220 222 225 222 241 252 247 249 243 236 253 267 276 252 224 195 230 255 249 233
164 163 162 167 173 178 186 173 164 166 164 168 183 194 207 209 206 212 216 227 230 225 217 214 221 227 223 224 230 256 268 266 241 239 255 261 251 261 238 248 262 282 277
159 163 158 161 165 168 162 147 149 155 155 163 169 176 193 216 224 218 202 218 233 230 213 199 218 225 232 232 223 225 243 275 288 278 271 280 282 286 273 272 285 287 288
145 149 148 151 146 141 145 146 142 134 148 145 140 127 121 159 250 230 191 200 189 131 102 98 79 67 101 161 191 189 242 266 280 273 274 287 319 338 337 315 308 305 303
146 145 136 135 140 146 144 137 128 121 115 108 101 101 86 53 51 73 103 104 102 103 91 96 93 64 61 100 104 95 86 224 271 271 294 322 338 348 343 332 329 323 313
136 130 134 138 138 140 139 128 123 117 110 105 102 91 79 60 66 80 89 95 85 74 69 58 35 42 54 71 110 105 89 62 220 230 278 307 338 353 339 327 322 308 285
127 127 131 133 134 131 125 122 118 113 109 102 93 89 83 59 60 79 98 94 83 71 62 54 51 36 13 10 80 85 78 58 77 107 97 47 33 359 344 322 307 303 290
108 108 119 126 127 123 123 116 111 108 103 97 90 84 80 63 52 68 94 95 88 76 62 49 46 41 19 43 95 93 85 64 68 88 110 132 114 18 1 353 346 344 336
95 101 103 109 115 116 116 115 109 105 103 98 85 76 74 65 53 61 79 94 94 87 73 59 50 48 39 45 60 66 58 31 42 70 91 140 239 18 25 16 1 351 341
89 92 92 94 100 103 103 106 108 107 103 99 92 82 74 67 58 56 62 76 87 86 78 68 52 49 53 52 56 55 37 11 356 8 77 66 57 46 48 38 28 355 329
90 88 86 85 91 98 99 101 105 110 108 105 101 91 77 68 61 58 61 62 64 73 72 72 69 59 55 49 49 33 21 14 14 33 46 40 34 26 7 356 344 314 276
92 90 89 86 80 82 89 90 92 93 99 102 100 94 82 71 61 60 67 67 67 74 78 84 78 62 62 59 48 31 27 31 35 38 34 25 9 353 340 339 339 336 322
98 94 92 88 80 69 65 65 66 65 86 92 91 92 87 71 57 48 59 69 76 76 79 101 105 67 43 54 52 46 47 37 32 30 18 7 358 0 4 357 350 342 336
103 101 97 93 90 80 70 57 64 51 55 82 86 88 90 79 42 36 52 52 47 43 41 90 82 75 65 60 59 52 45 34 22 13 13 8 3 359 356 359 355 345 343
113 112 109 108 105 101 96 80 58 63 63 65 70 84 82 81 69 51 44 38 34 27 40 56 58 52 51 51 49 50 48 36 22 19 18 12 4 1 357 357 353 346 344
106 107 110 112 114 115 113 110 100 74 64 64 66 73 81 77 62 49 38 21 17 31 56 59 56 48 41 41 42 39 41 38 24 20 18 9 1 357 356 355 355 354 348
105 100 104 106 107 109 113 118 119 117 107 90 73 73 75 68 49 29 24 29 54 56 59 58 53 48 44 37 37 34 32 33 21 14 16 8 0 358 357 354 355 356 346
98 99 98 106 114 116 117 112 109 108 108 111 110 97 87 88 53 27 24 46 63 61 57 54 46 44 41 36 31 25 25 28 18 10 16 5 359 358 357 350 348 350 345
89 91 96 107 110 113 113 110 110 111 108 107 103 98 108 126 94 79 66 52 57 59 53 55 49 46 41 32 28 21 19 23 15 10 7 358 355 356 352 346 346 344 343
100 96 96 99 98 98 101 103 104 103 103 99 90 73 51 79 81 75 69 57 53 56 52 46 48 45 40 29 24 19 20 21 16 7 2 356 353 348 343 341 342 342 341
105 104 95 91 90 88 90 96 97 96 97 101 106 94 68 64 71 73 71 66 59 53 51 41 40 43 34 25 26 24 23 20 10 1 353 347 344 339 341 343 343 341 343
107 105 98 95 95 95 92 88 88 90 91 91 93 91 83 72 73 71 68 64 60 56 53 50 44 41 37 33 36 36 24 12 356 346 343 339 335 333 333 337 338 340 343
95 95 96 99 97 95 93 92 89 91 93 91 89 87 85 78 74 70 67 63 60 56 50 51 50 44 46 39 32 31 29 11 353 341 336 322 317 321 330 332 333 334 334
93 95 96 95 94 92 91 89 89 88 88 88 85 81 83 82 81 77 69 64 65 59 52 55 49 47 48 44 34 25 14 6 358 344 325 312 310 320 329 330 332 332 336
90 92 94 92 90 89 92 92 89 85 85 85 84 80 75 76 76 75 71 61 57 64 55 58 59 57 51 41 32 19 7 1 353 344 327 307 308 325 339 333 332 334 337
Height
1497 1499 1501 1503 1506 1508 1509 1511 1513 1516 1518 1520 1522 1524 1525 1527 1528 1530 1533 1534 1536 1537 1539 1540 1541 1542 1543 1545 1546 1547 1548 1549 1549 1550 1551 1551 1551 1551 1551 1551 1551 1551 1550
1495 1498 1500 1501 1503 1505 1506 1508 1511 1513 1515 1516 1518 1520 1522 1523 1525 1527 1529 1530 1532 1534 1535 1536 1537 1538 1539 1540 1542 1543 1544 1545 1546 1546 1547 1547 1547 1547 1547 1547 1547 1547 1547
1495 1497 1499 1500 1501 1503 1505 1507 1508 1510 1512 1513 1515 1517 1518 1520 1522 1523 1525 1527 1528 1530 1531 1532 1533 1535 1535 1537 1538 1539 1540 1541 1542 1542 1543 1543 1543 1544 1543 1543 1543 1543 1542
1495 1497 1498 1499 1500 1502 1504 1505 1507 1508 1510 1511 1512 1514 1515 1517 1519 1520 1522 1523 1524 1526 1527 1528 1530 1531 1532 1533 1534 1534 1536 1537 1538 1538 1538 1539 1539 1539 1539 1539 1538 1538 1538
1494 1496 1497 1498 1500 1501 1502 1504 1505 1507 1508 1509 1511 1512 1513 1514 1516 1517 1518 1520 1521 1522 1523 1525 1526 1527 1528 1529 1530 1530 1532 1532 1533 1534 1535 1535 1535 1535 1534 1534 1534 1533 1533
1493 1495 1496 1497 1499 1500 1502 1503 1504 1505 1507 1508 1509 1510 1511 1512 1513 1515 1516 1517 1518 1519 1520 1521 1522 1523 1524 1525 1526 1527 1528 1529 1529 1530 1531 1531 1531 1531 1531 1531 1530 1529 1528
1492 1494 1495 1496 1498 1499 1501 1502 1503 1505 1506 1507 1508 1509 1510 1511 1512 1513 1514 1515 1516 1517 1518 1519 1520 1521 1522 1523 1523 1524 1525 1525 1526 1527 1527 1527 1528 1527 1527 1527 1526 1526 1525
1491 1493 1494 1496 1497 1499 1500 1501 1503 1504 1505 1506 1507 1508 1509 1510 1511 1512 1513 1514 1515 1516 1517 1517 1518 1518 1519 1520 1521 1521 1522 1522 1522 1523 1523 1524 1525 1524 1524 1524 1523 1523 1522
1491 1492 1494 1495 1497 1498 1499 1501 1502 1504 1505 1506 1507 1508 1509 1510 1511 1512 1513 1514 1514 1515 1516 1517 1517 1517 1518 1518 1518 1518 1519 1520 1521 1521 1521 1522 1522 1522 1522 1522 1521 1520 1520
1491 1492 1494 1495 1497 1498 1500 1501 1503 1504 1505 1507 1508 1509 1510 1511 1512 1513 1514 1514 1515 1515 1516 1516 1516 1516 1516 1517 1517 1517 1518 1518 1519 1519 1520 1520 1520 1520 1520 1519 1519 1519 1518
1492 1493 1494 1496 1497 1499 1500 1502 1503 1505 1506 1508 1509 1510 1511 1512 1513 1514 1515 1515 1516 1516 1516 1517 1517 1517 1517 1517 1517 1517 1517 1518 1518 1519 1519 1519 1519 1518 1518 1518 1518 1517 1516
1493 1494 1495 1497 1498 1500 1501 1503 1505 1506 1508 1509 1510 1511 1513 1514 1514 1515 1516 1516 1517 1517 1518 1518 1518 1518 1518 1518 1518 1518 1518 1518 1519 1519 1519 1519 1518 1518 1518 1517 1517 1516 1515
1494 1495 1496 1498 1500 1502 1503 1504 1506 1508 1509 1511 1512 1513 1514 1515 1515 1516 1517 1517 1518 1518 1519 1520 1520 1520 1520 1519 1519 1519 1519 1519 1519 1519 1519 1519 1518 1518 1517 1516 1515 1514 1513
1495 1497 1498 1500 1502 1503 1505 1506 1508 1510 1511 1512 1513 1514 1515 1516 1517 1517 1518 1518 1519 1520 1521 1522 1522 1522 1521 1521 1521 1521 1520 1520 1520 1520 1519 1519 1518 1517 1516 1515 1513 1512 1510
1497 1499 1500 1502 1504 1505 1507 1508 1510 1511 1513 1514 1514 1515 1516 1517 1518 1519 1520 1520 1521 1522 1523 1523 1524 1524 1523 1523 1523 1523 1522 1521 1520 1520 1520 1519 1518 1517 1516 1514 1513 1511 1509
1499 1501 1503 1504 1506 1507 1509 1510 1512 1514 1515 1516 1517 1517 1518 1519 1520 1521 1522 1523 1523 1524 1524 1525 1525 1525 1525 1525 1525 1524 1523 1522 1521 1521 1520 1519 1518 1516 1515 1514 1512 1510 1508
1501 1503 1505 1507 1508 1510 1512 1513 1514 1516 1518 1519 1520 1521 1521 1522 1523 1524 1524 1525 1526 1526 1526 1526 1527 1527 1527 1527 1526 1525 1524 1523 1522 1521 1520 1519 1518 1516 1515 1513 1511 1509 1507
1504 1505 1507 1509 1511 1513 1514 1516 1517 1518 1519 1521 1523 1524 1524 1525 1526 1526 1527 1528 1528 1528 1528 1529 1529 1529 1529 1528 1527 1526 1525 1524 1523 1522 1521 1519 1518 1516 1515 1513 1511 1509 1507
1506 1508 1509 1511 1513 1515 1517 1519 1520 1521 1522 1524 1526 1527 1528 1528 1529 1529 1530 1530 1530 1530 1530 1530 1530 1530 1529 1529 1528 1527 1526 1525 1523 1522 1521 1519 1518 1516 1514 1513 1511 1509 1506
1508 1511 1512 1514 1516 1518 1520 1521 1522 1524 1526 1527 1528 1529 1530 1531 1531 1532 1532 1532 1532 1532 1532 1532 1531 1531 1530 1529 1528 1527 1526 1525 1523 1522 1521 1519 1517 1516 1514 1512 1510 1508 1506
1511 1513 1515 1517 1518 1520 1522 1523 1525 1526 1528 1529 1530 1531 1531 1532 1533 1533 1533 1533 1533 1533 1533 1533 1532 1532 1530 1530 1528 1527 1526 1524 1523 1521 1520 1518 1517 1515 1513 1511 1509 1507 1505
1514 1516 1517 1519 1520 1522 1524 1525 1527 1528 1529 1531 1531 1532 1533 1534 1534 1535 1535 1535 1535 1535 1534 1534 1533 1532 1531 1530 1528 1527 1525 1524 1522 1520 1519 1517 1515 1514 1512 1510 1508 1506 1504
1517 1518 1520 1521 1523 1524 1526 1527 1529 1530 1531 1532 1533 1534 1534 1535 1535 1536 1536 1536 1536 1535 1535 1534 1533 1532 1530 1529 1528 1526 1524 1523 1521 1519 1518 1516 1514 1513 1511 1509 1507 1505 1503
1520 1521 1522 1524 1525 1527 1528 1529 1530 1532 1533 1534 1534 1535 1535 1536 1537 1537 1537 1537 1536 1536 1535 1534 1533 1532 1530 1528 1527 1525 1523 1522 1520 1518 1516 1515 1513 1512 1510 1508 1506 1504 1502
1522 1523 1525 1526 1527 1528 1530 1531 1532 1533 1534 1535 1536 1536 1537 1537 1537 1537 1537 1537 1536 1536 1535 1534 1533 1531 1530 1528 1526 1524 1522 1521 1519 1517 1515 1514 1512 1511 1509 1507 1505 1503 1501
1525 1526 1527 1528 1529 1530 1532 1533 1534 1535 1535 1536 1537 1537 1538 1538 1538 1538 1538 1537 1537 1536 1535 1534 1532 1531 1529 1527 1525 1523 1521 1520 1518 1516 1514 1513 1511 1510 1508 1506 1504 1502 1500